Location: Lecco
(45.8566°N, 9.3977°E)
Time: 03:26:38
(UTC+02:00)

Transit 2A Rocket - All Passes

Search period start: 19 August 2019 00:00
Search period end: 29 August 2019 00:00
Orbit: 590 x 913 km, 66.7° (Epoch: 16 August)

Date Brightness Start Highest point End Pass type
(mag) Time Alt. Az. Time Alt. Az. Time Alt. Az.
19 Aug - 00:36:13 10° NNW 00:36:46 10° NNW 00:37:17 10° NNW visible
19 Aug - 04:04:52 10° N 04:07:08 13° NNE 04:09:20 10° ENE visible
19 Aug - 05:46:10 10° NNW 05:50:48 59° NE 05:55:07 10° SE visible
19 Aug - 07:29:57 10° WNW 07:32:46 16° WSW 07:35:30 10° SW daylight
19 Aug - 20:22:29 10° S 20:27:27 30° ESE 20:32:08 10° NE daylight
19 Aug - 22:04:18 10° SW 22:09:53 50° NW 22:15:03 10° NNE visible
19 Aug - 23:50:58 10° WNW 23:53:39 14° NNW 23:56:14 10° N visible
20 Aug - 05:03:48 10° NNW 05:08:09 36° NE 05:12:12 10° ESE visible
20 Aug - 06:46:37 10° NW 06:50:34 29° WSW 06:54:19 10° S daylight
20 Aug - 19:41:21 10° SSE 19:45:11 18° ESE 19:48:51 10° ENE daylight
20 Aug - 21:21:29 10° SW 21:27:17 79° WNW 21:32:38 10° NNE visible
20 Aug - 23:06:49 10° W 23:10:39 19° NW 23:14:17 10° N visible
21 Aug - 04:21:33 10° NNW 04:25:21 23° NE 04:28:56 10° E visible
21 Aug - 06:03:45 10° NW 06:08:14 53° WSW 06:12:27 10° SSE daylight
21 Aug - 19:02:08 10° ESE 19:03:00 10° ESE 19:03:52 10° E daylight
21 Aug - 20:39:02 10° SSW 20:44:46 67° ESE 20:50:05 10° NE daylight
21 Aug - 22:23:06 10° W 22:27:46 26° NW 22:32:08 10° NNE visible
22 Aug - 03:39:27 10° N 03:42:25 16° NE 03:45:16 10° ENE visible
22 Aug - 05:21:08 10° NNW 05:25:48 85° ENE 05:30:08 10° SSE visible
22 Aug - 07:06:27 10° W 07:07:29 11° WSW 07:08:30 10° WSW daylight
22 Aug - 19:56:58 10° S 20:02:20 41° ESE 20:07:22 10° NE daylight
22 Aug - 21:39:43 10° WSW 21:44:59 38° NW 21:49:53 10° NNE visible
22 Aug - 23:27:33 10° NW 23:29:01 11° NNW 23:30:27 10° N visible
23 Aug - 02:57:43 10° N 02:59:24 12° NNE 03:01:02 10° NE visible
23 Aug - 04:38:41 10° NNW 04:43:13 49° NE 04:47:26 10° SE visible
23 Aug - 06:22:03 10° WNW 06:25:20 20° WSW 06:28:30 10° SSW daylight
23 Aug - 19:15:23 10° SSE 19:20:00 25° ESE 19:24:23 10° ENE daylight
23 Aug - 20:56:40 10° SW 21:02:20 58° NW 21:07:32 10° NNE visible
23 Aug - 22:42:53 10° WNW 22:45:56 15° NNW 22:48:52 10° N visible
24 Aug - 03:56:21 10° NNW 04:00:30 30° NE 04:04:24 10° ESE visible
24 Aug - 05:38:56 10° NW 05:43:05 35° WSW 05:47:01 10° S visible
24 Aug - 18:34:36 10° SE 18:37:45 15° ESE 18:40:48 10° ENE daylight
24 Aug - 20:13:59 10° SSW 20:19:46 89° E 20:25:04 10° NNE daylight
24 Aug - 21:58:53 10° W 22:02:59 21° NW 22:06:51 10° N visible
25 Aug - 03:14:09 10° N 03:17:40 20° NE 03:21:00 10° E visible
25 Aug - 04:56:10 10° NW 05:00:44 65° WSW 05:04:59 10° SSE visible
25 Aug - 19:31:38 10° SSW 19:37:16 56° ESE 19:42:28 10° NE daylight
25 Aug - 21:15:16 10° WSW 21:20:08 29° NW 21:24:40 10° NNE visible
26 Aug - 02:32:09 10° N 02:34:43 14° NNE 02:37:10 10° ENE visible
26 Aug - 04:13:37 10° NNW 04:18:13 71° NE 04:22:32 10° SE visible
26 Aug - 05:57:55 10° WNW 06:00:04 13° WSW 06:02:09 10° SW visible
26 Aug - 18:49:44 10° S 18:54:52 34° ESE 18:59:40 10° NE daylight
26 Aug - 20:32:01 10° WSW 20:37:24 44° NW 20:42:23 10° NNE visible
26 Aug - 22:19:14 10° NW 22:21:16 12° NNW 22:23:15 10° N visible
27 Aug - 01:50:56 10° NNE 01:51:39 10° NNE 01:52:21 10° NE visible
27 Aug - 03:31:12 10° NNW 03:35:36 41° NE 03:39:43 10° ESE visible
27 Aug - 05:14:15 10° WNW 05:17:53 24° WSW 05:21:21 10° SSW visible
27 Aug - 18:08:22 10° SSE 18:12:34 21° ESE 18:16:32 10° ENE daylight
27 Aug - 19:49:05 10° SW 19:54:46 68° NW 20:00:00 10° NNE daylight
27 Aug - 21:34:51 10° WNW 21:38:14 16° NW 21:41:28 10° N visible
28 Aug - 02:48:56 10° NNW 02:52:51 26° NE 02:56:33 10° E visible
28 Aug - 04:31:18 10° NW 04:35:35 43° WSW 04:39:40 10° S visible
28 Aug - 17:28:08 10° SE 17:30:22 12° ESE 17:32:30 10° E daylight
28 Aug - 19:06:30 10° SSW 19:12:14 77° ESE 19:17:29 10° NE daylight
28 Aug - 20:50:59 10° W 20:55:20 23° NW 20:59:23 10° NNE visible
